This is the latest recevied weather packets stored in our database for station/object KB1RMA-4. If no packets are shown the sender has not sent any weather packets the latest 10 day(s).
| Time | Temp. | Humidity | Pressure | Rain* | Wind** | Luminosity | Snow |
|---|---|---|---|---|---|---|---|
| 1788373416 | 20.56° C | 78% | 1022.4 hPa | 0 mm | - | 337 W/m² | - |
| 1788373112 | 20.56° C | 78% | 1022.4 hPa | 0 mm | - | 311 W/m² | - |
| 1788372808 | 20° C | 78% | 1022.4 hPa | 0 mm | - | 291 W/m² | - |
| 1788372507 | 20° C | 79% | 1022.5 hPa | 0 mm | - | 269 W/m² | - |
| 1788372203 | 20° C | 79% | 1022.5 hPa | 0 mm | - | 242 W/m² | - |
| 1788371898 | 20° C | 78% | 1022.4 hPa | 0 mm | - | 248 W/m² | - |
| 1788371593 | 20° C | 78% | 1022.5 hPa | 0 mm | - | 256 W/m² | - |
| 1788371289 | 20° C | 79% | 1022.7 hPa | 0 mm | - | 242 W/m² | - |
| 1788370985 | 20° C | 78% | 1022.5 hPa | 0 mm | - | 235 W/m² | - |
| 1788370681 | 20° C | 78% | 1022.4 hPa | 0 mm | - | 253 W/m² | - |
| 1788370381 | 20° C | 78% | 1022.4 hPa | 0 mm | - | 252 W/m² | - |
| 1788370076 | 20° C | 78% | 1022.4 hPa | 0 mm | - | 248 W/m² | - |
| 1788369775 | 20° C | 78% | 1022.4 hPa | 0 mm | - | 255 W/m² | - |
| 1788369470 | 20° C | 78% | 1022.5 hPa | 0 mm | - | 272 W/m² | - |
| 1788369165 | 20° C | 78% | 1022.7 hPa | 0 mm | - | 278 W/m² | - |
| 1788368861 | 20° C | 78% | 1022.8 hPa | 0 mm | - | 315 W/m² | - |
| 1788368556 | 20.56° C | 78% | 1022.6 hPa | 0 mm | - | 297 W/m² | - |
| 1788368252 | 20.56° C | 77% | 1022.6 hPa | 0 mm | - | 307 W/m² | - |
| 1788367946 | 20.56° C | 78% | 1022.7 hPa | 0 mm | - | 308 W/m² | - |
| 1788367647 | 20.56° C | 78% | 1022.5 hPa | 0 mm | - | 402 W/m² | - |
| 1788367346 | 20.56° C | 78% | 1022.5 hPa | 0 mm | - | 377 W/m² | - |
| 1788367042 | 20.56° C | 78% | 1022.4 hPa | 0 mm | - | 348 W/m² | - |
| 1788366741 | 20° C | 79% | 1022.5 hPa | 0 mm | - | 316 W/m² | - |
| 1788366440 | 20° C | 79% | 1022.7 hPa | 0 mm | - | 299 W/m² | - |
| 1788366134 | 20.56° C | 79% | 1022.8 hPa | 0 mm | - | 324 W/m² | - |
* Rain latest hour (hover to see other rain measurements)
** Current wind speed in m/s (hover to see current wind gust speed)